User: anonymous   Login
Location: Oshawa
(43.9000°N, 78.8670°W)
Time: 11:21:40
(UTC-04:00)
Language:

Cosmos 1500 - Orbit

View from above orbital plane
View from above orbital plane
View from above satellite
View from above satellite

Ground track
Ground track

The orbit data is extracted from the following two-line orbital elements,

1 14372U 83099A   16208.85909501  .00000864  00000-0  42255-4 0  9990
2 14372  82.5171 304.8946 0017074 132.9141   6.6591 15.16742992788474
Epoch (UTC): 26 July 2016 20:37:05
Eccentricity: 0.0017074
inclination: 82.5171°
perigee height: 504 km
apogee height: 527 km
right ascension of ascending node: 304.8946°
argument of perigee: 132.9141°
revolutions per day: 15.16742992
mean anomaly at epoch: 6.6591°
orbit number at epoch: 78847

The dashed part of the orbit path shows where the satellite is in the earth's shadow,  

DLR